Overview Statistics Trail Chart Weather Telemetry Raw packets
 

This is the latest recevied weather packets stored in our database for station/object K6GMW. If no packets are shown the sender has not sent any weather packets the latest 10 day(s).

<< 25 26 27 28 29 30 31 >>
Time Temp. Humidity Pressure Rain* Wind** Luminosity Snow
1788455565 32.22° C 57% 1016.4 hPa 0 mm - 272 W/m² -
1788455264 31.67° C 57% 1016.4 hPa 0 mm - 872 W/m² -
1788454960 32.78° C 55% 1016.2 hPa 0 mm - 145 W/m² -
1788454658 32.78° C 55% 1016.5 hPa 0 mm - 963 W/m² -
1788454352 32.78° C 56% 1016.4 hPa 0 mm - 937 W/m² -
1788454047 32.78° C 55% 1016.6 hPa 0 mm - 938 W/m² -
1788453743 32.22° C 56% 1016.5 hPa 0 mm - 931 W/m² -
1788453442 32.78° C 57% 1016.7 hPa 0 mm - 883 W/m² -
1788453139 32.22° C 58% 1016.6 hPa 0 mm - 925 W/m² -
1788452835 31.67° C 58% 1016.7 hPa 0 mm - 864 W/m² -
1788452531 31.67° C 59% 1016.7 hPa 0 mm - 901 W/m² -
1788452226 31.67° C 60% 1016.7 hPa 0 mm - 813 W/m² -
1788451921 31.67° C 61% 1016.7 hPa 0 mm - 825 W/m² -
1788451618 31.67° C 61% 1016.6 hPa 0 mm - 804 W/m² -
1788451317 31.67° C 61% 1016.6 hPa 0 mm - 790 W/m² -
1788451015 31.11° C 62% 1016.7 hPa 0 mm - 769 W/m² -
1788450716 30.56° C 63% 1016.7 hPa 0 mm - 756 W/m² -
1788450412 30.56° C 63% 1016.7 hPa 0 mm - 743 W/m² -
1788450108 30.56° C 66% 1016.6 hPa 0 mm - 725 W/m² -
1788449803 30.56° C 65% 1016.8 hPa 0 mm - 714 W/m² -
1788449499 30° C 65% 1016.8 hPa 0 mm - 699 W/m² -
1788449195 30.56° C 65% 1016.7 hPa 0 mm - 685 W/m² -
1788448891 30° C 66% 1016.7 hPa 0 mm - 670 W/m² -
1788448590 30° C 66% 1016.6 hPa 0 mm - 658 W/m² -
1788448286 29.44° C 68% 1016.8 hPa 0 mm - 638 W/m² -

* Rain latest hour (hover to see other rain measurements)
** Current wind speed in m/s (hover to see current wind gust speed)